Regional Weather Roundup
Issued by NWS Jackson, KY

Home | Current Version | Previous Version | Graphics & Text | Print | Product List | Glossary On
Versions: 1 2 3 4 5 6 7 8 9 10 11 12 13 14 15 16 17 18 19 20 21 22 23 24 25 26 27 28 29 30 31 32 33 34 35 36 37 38 39 40 41 42 43 44 45 46 47 48 49 50
000
ASUS43 KJKL 020610
RWRJKL

EAST KENTUCKY HOURLY WEATHER ROUNDUP
NATIONAL WEATHER SERVICE JACKSON KY
200 AM EDT SUN AUG 02 2015

NOTE: "FAIR" INDICATES FEW OR NO CLOUDS BELOW 12,000 FEET WITH
NO SIGNIFICANT WEATHER AND/OR OBSTRUCTIONS TO VISIBILITY.

* THESE REPORTS ARE NOT UNDER NWS QUALITY CONTROL AND MAY NOT
  REPORT WEATHER SUCH AS PRECIPITATION AND FOG.

KYZ079-080-083-085-087-088-110-112-115-119-120-020700
...EASTERN KENTUCKY...

CITY           SKY/WX    TMP DP  RH WIND       PRES   REMARKS
JACKSON        PTCLDY    68  58  70 CALM      30.03S
6HR MIN TEMP:  67; 6HR MAX TEMP:  79;

LONDON         PTCLDY    65  59  81 CALM      30.03S
6HR MIN TEMP:  64; 6HR MAX TEMP:  82;

SOMERSET*      MOCLDY    61  61 100 CALM      30.03S
MONTICELLO*    CLEAR     60  60 100 CALM      30.05S
6HR MIN TEMP:  60; 6HR MAX TEMP:  81;

WILLIAMSBURG*  CLEAR     63  63 100 CALM      30.03R
MIDDLESBORO*   CLEAR     63  62  97 CALM      30.03S
6HR MIN TEMP:  63; 6HR MAX TEMP:  79;

HAZARD APT*    CLEAR     63  63 100 CALM      30.02F
BLACK MTN*       N/A     59  57  94 N2          N/A
PIKEVILLE APT* CLEAR     68  63  83 CALM      30.02S
BIG SANDY*     PTCLDY    65  62  91 CALM      30.02S
6HR MIN TEMP:  65; 6HR MAX TEMP:  78;

MOREHEAD APT*  PTCLDY    64  63  94 CALM      30.04R
$$

KYZ035-036-041-042-044-050-067-078-099-020700
...CENTRAL KENTUCKY...

CITY           SKY/WX    TMP DP  RH WIND       PRES   REMARKS
MT STERLING*   MOCLDY    61  61 100 CALM      30.03S
FLEMING/MASON* CLEAR     66  61  82 CALM      30.02S
DANVILLE*      MOCLDY    63  59  88 CALM      30.03S
RICHMOND*      MOCLDY    63  59  88 CALM      30.02S
LEXINGTON      MOCLDY    64  59  83 CALM      30.02S
6HR MIN TEMP:  64; 6HR MAX TEMP:  79;

FRANKFORT      PTCLDY    63  60  90 CALM      30.01S
6HR MIN TEMP:  63; 6HR MAX TEMP:  80;

$$

KYZ091>093-OHZ055-061-077-WVZ005-015-034-035-042-020700
...SOUTHERN OHIO/WEST VIRGINIA...

CITY           SKY/WX    TMP DP  RH WIND       PRES   REMARKS
COVINGTON      PTCLDY    66  60  81 W5        30.00S
COLUMBUS       PTCLDY    67  58  72 S3        29.96S
DAYTON         PTCLDY    65  58  78 SW7       29.99S
WILMINGTON     CLEAR     63  58  83 SW3       30.00S
HUNTINGTON     PTCLDY    62  60  93 CALM      29.99S
CHARLESTON     PTCLDY    63  60  90 CALM      30.00R
PINEVILLE*     CLEAR     60  60 100 MISG      30.09S
BECKLEY        CLEAR     60  55  83 CALM      30.07S
BLUEFIELD      CLEAR     64  57  78 SW3       30.08F
$$

VAZ002-007-008-TNZ017-027-036-066-071-020700
...SOUTHWEST VIRGINIA/EAST TENNESSEE...

CITY           SKY/WX    TMP DP  RH WIND       PRES   REMARKS
WISE*          PTCLDY    64  55  72 CALM      30.09S
ABINGDON*      PTCLDY    64  60  86 CALM      30.05S
BRISTOL        MOCLDY    63  60  90 CALM      30.02S
KNOXVILLE      MOCLDY    73  65  75 CALM      29.99S
OAK RIDGE      CLEAR     68  63  84 CALM      30.01S
CROSSVILLE     CLEAR     65  60  84 CALM      30.05F
NASHVILLE      CLEAR     70  55  59 CALM      30.00S
$$

...KEY TO REMARKS...
VSB - VISIBILITY IN MILES
WCI - WIND CHILL INDEX
HX  - HEAT INDEX

$$


USA.gov is the U.S. government's official web portal to all federal, state and local government web resources and services.